[ hide orbit diagram ]
For accurate long-term ephemerides, please instead use our Horizons system.This orbit viewer was implemented using two-body methods, and hence should not be used for determining accurate long-term trajectories (over several years or decades) or planetary encounter circumstances.
Orbital Elements at Epoch 2459000.5 (2020-May-31.0) TDB
Reference: JPL 12 (heliocentric ecliptic J2000)
Element | Value | Uncertainty (1-sigma) | Units |
e | .02223811099711044 | 5.5037e-08 | |
a | 2.756340771710211 | 3.5091e-08 | au |
q | 2.695044959683058 | 1.5205e-07 | au |
i | 4.58814873192003 | 6.0272e-06 | deg |
node | 274.9627315665941 | 8.2008e-05 | deg |
peri | 18.55414874431608 | 0.00017528 | deg |
M | 178.5613776425393 | 0.00015639 | deg |
tp | 2458171.446002166541 (2018-Feb-21.94600217) | 0.00072613 | TDB |
period | 1671.466938486155 4.58 | 3.192e-05 8.739e-08 | d yr |
n | .215379671419676 | 4.113e-09 | deg/d |
Q | 2.817636583737363 | 3.5872e-08 | au |
|
| | Orbit Determination Parameters
Additional Information
|
[ show covariance matrix ]
Physical Parameter Table
Parameter |
Symbol |
Value |
Units |
Sigma |
Reference |
Notes |
absolute magnitude |
H |
16.6 |
|
n/a |
MPO455388 |
|
|
324003 (2005 UV288) Discovered 2005-Oct-26 by Spacewatch at Kitt Peak |
Reference: 20120406/Numbers.arc | Last Updated: 2012-04-09 |
|
[ hide close-approach data ]
Close-Approach Data ...sorted by Date/Time (TDB)
|
Date/Time (TDB) |
Time Uncertainty (days_HH:MM) |
Body |
Nominal Distance (au) |
Minimum Distance (au) |
Maximum Distance (au) |
V-relative (km/s) |
V-infinity (km/s) |
JD (TDB) |
Time Uncertainty (minutes) |
Semi-major axis (km) |
Semi-minor axis (km) |
range-LOV angle (deg) |
N-sigma |
BP |
Orbit Ref. |
Reference |
Modified |
1985-Mar-10 02:09 |
00:18 |
Amphi |
0.0211820948700927 |
0.0211541679541086 |
0.0212101402488694 |
2.4094665782038 |
2.40946646556624 |
2446134.589877069 |
17.9927747693456 |
2859.83871407817 |
68.7919078700656 |
60.8698146418518 |
40183.210756427 |
T |
12 |
CATAB v2.0f-lin.ifort 2020-Nov-11 18:05:45 |
2020-Nov-11 18:05 |
2005-Dec-07 13:45 |
00:03 |
Thisb |
0.0471933883746756 |
0.0471891517115806 |
0.0471976250904278 |
2.80481978717492 |
2.80481973566527 |
2453712.072818299 |
3.15205485599308 |
235.039510226403 |
137.325613762554 |
32.8459544987408 |
37565.4493580984 |
T |
12 |
CATAB v2.0f-lin.ifort 2020-Nov-11 18:05:45 |
2020-Nov-11 18:05 |
|
|